Location: T�chigga el Be�da
(16.4766°N, 9.3887°W)
Time: 17:36:02
(UTC+00:00)

Ariane Rocket - Pass Details

Date: 27 February 2020
Orbit: 759 x 771 km, 98.7° (Epoch: 03 April)

Event Time Altitude Azimuth Distance (km) Brightness Sun altitude
Rises 19:18:58 0° 133° (SE) 3,229 5.8 -9.2°
Reaches altitude 10° 19:21:55 10° 115° (ESE) 2,305 5.0 -9.9°
Maximum altitude 19:25:20 18° 73° (ENE) 1,793 4.3 -10.7°
Drops below altitude 10° 19:28:46 10° 30° (NNE) 2,309 5.1 -11.5°
Sets 19:31:43 0° 12° (NNE) 3,236 6.1 -12.2°
